Tracking 20093 objects as of 14-Dec-2019
HD Live streaming from Space Station
objects crossing your sky now

FENGYUN 1C DEB

Track FENGYUN 1C DEB now!
10-day predictions


NORAD ID: 31683
Int'l Code: 1999-025CCR
Perigee: 704.2 km
Apogee: 808.7 km
Inclination: 98.7 °
Period: 99.8 minutes
Semi major axis: 7127 km
RCS: 0.0138 m2 (small)
Launch date: May 10, 1999
Source: People's Republic of China (PRC)
Launch site: Taiyaun Space Center, China (TSC)

Note: This is SATELLITE DEBRIS
aabbcc
Your satellite tracking list
Your tracking list is empty




NASA's NSSDC Master Catalog

Two Line Element Set (TLE):
1 31683U 99025CCR 19347.34714211  .00001053  00000-0  31967-3 0  9991
2 31683  98.7297  16.9796 0073287  81.5608 279.3880 14.42786366657178
Source of the keplerian elements: AFSPC